Weather History for KP28 - January, 2014

Change the Weather History Date:

Monday, January 27, 2014

  Actual Average Record
Temperature  
Mean Temperature 21 °F 34 °F  
Max Temperature 27 °F 47 °F 82 °F (2015)
Min Temperature 14 °F 22 °F -6 °F (1963)
Degree Days  
Heating Degree Days 44 31  
Month to date heating degree days 852 856  
Since 1 July heating degree days 2850 2655  
Cooling Degree Days 0 0  
Month to date cooling degree days 0 0  
Year to date cooling degree days 0 0  
Moisture  
Dew Point -5 °F    
Average Humidity 54    
Maximum Humidity 80    
Minimum Humidity 27    
Precipitation  
Precipitation 0.02 in 0.04 in 0.56 in (1973)
Month to date precipitation 0.14 0.59  
Year to date precipitation 0.14 0.59  
Snow  
Snow 0.00 in 0.20 in - ()
Month to date snowfall 0.0 2.7  
Since 1 July snowfall 6.5 5.6  
Snow Depth -    
Sea Level Pressure  
Sea Level Pressure 30.45 in    
Wind  
Wind Speed 14 mph (NNE)    
Max Wind Speed 36 mph    
Max Gust Speed 46 mph    
T = Trace of Precipitation, MM = Missing Value Source: NWS Daily Summary

Daily Weather History Graph

Daily Weather History Graph

Search for Another Location

Airport or City:

Trip Planner

Search our weather history database for the weather conditions in past years. The results will help you decide how hot, cold, wet, or windy it might be!

Date:

Astronomy

Jan. 27, 2014 Rise Set
Actual Time 7:41 AM CST 5:53 PM CST
Civil Twilight 7:13 AM CST 6:21 PM CST
Nautical Twilight 6:41 AM CST 6:52 PM CST
Astronomical Twilight 6:11 AM CST 7:23 PM CST
Moon 4:22 AM CST 2:41 PM CST
Length of Visible Light 11h 07m
Length of Day
10h 12m
Waning Crescent, 14% of the Moon is Illuminated
Jan 27
Waning Crescent
Jan 30
New
Feb 6
First Quarter
Feb 14
Full
Feb 22
Last Quarter

Hourly Weather History & Observations

Time (CST) Temp. Windchill Dew Point Humidity Pressure Visibility Wind Dir Wind Speed Gust Speed Precip Events Conditions
12:56 AM 24.1 °F 7.4 °F -6.0 °F 27% 30.24 in - North 27.6 mph 38.0 mph N/A   Unknown
1:56 AM 21.9 °F 6.5 °F -7.1 °F 28% 30.28 in - NNE 20.7 mph 35.7 mph N/A   Unknown
2:56 AM 19.9 °F 5.2 °F -8.0 °F 29% 30.34 in - NNE 17.3 mph - N/A   Unknown
3:56 AM 19.0 °F 2.7 °F -8.0 °F 30% 30.37 in - NNE 20.7 mph 29.9 mph N/A   Unknown
4:56 AM 18.0 °F 2.6 °F -7.1 °F 33% 30.38 in - NNE 17.3 mph 28.8 mph N/A   Unknown
5:56 AM 17.1 °F -0.3 °F -9.0 °F 31% 30.40 in - NNE 21.9 mph 29.9 mph N/A   Unknown
6:56 AM 17.1 °F 1.5 °F -8.0 °F 33% 30.43 in - NNE 17.3 mph 27.6 mph N/A   Unknown
7:56 AM 16.0 °F -0.4 °F -5.1 °F 39% 30.47 in - NNE 18.4 mph 23.0 mph N/A   Unknown
8:56 AM 15.1 °F -1.1 °F -8.0 °F 36% 30.49 in - NNE 17.3 mph 25.3 mph N/A   Unknown
9:56 AM 17.1 °F 1.5 °F -8.0 °F 33% 30.50 in - NNE 17.3 mph - N/A   Unknown
10:56 AM 17.1 °F 2.0 °F -8.0 °F 33% 30.51 in - NNE 16.1 mph - N/A   Unknown
11:56 AM 17.1 °F 3.6 °F -9.0 °F 31% 30.51 in - NE 12.7 mph - N/A   Unknown
12:56 PM 17.1 °F 5.8 °F -9.0 °F 31% 30.51 in - NE 9.2 mph - N/A   Unknown
1:56 PM 17.1 °F 5.0 °F -9.9 °F 30% 30.48 in - North 10.4 mph - N/A   Unknown
2:56 PM 18.0 °F 6.9 °F -8.0 °F 31% 30.48 in - NNE 9.2 mph - N/A   Unknown
3:56 PM 18.0 °F 7.7 °F -7.1 °F 33% 30.47 in - NNE 8.1 mph - N/A   Unknown
4:56 PM 18.0 °F 6.1 °F -7.1 °F 33% 30.47 in - NNE 10.4 mph - N/A   Unknown
5:56 PM 18.0 °F 7.7 °F -5.1 °F 36% 30.46 in - NNE 8.1 mph - N/A   Unknown
6:56 PM 18.0 °F 7.7 °F -7.1 °F 33% 30.47 in - NNE 8.1 mph - N/A   Unknown
7:56 PM 18.0 °F 7.7 °F -7.1 °F 33% 30.48 in - NNE 8.1 mph - N/A   Unknown
8:56 PM 15.1 °F 4.2 °F 7.0 °F 70% 30.51 in - NNE 8.1 mph - N/A   Unknown
9:56 PM 16.0 °F 3.6 °F 3.9 °F 59% 30.51 in - North 10.4 mph - N/A   Unknown
10:56 PM 14.0 °F 6.5 °F 9.0 °F 80% 30.51 in - North 4.6 mph - 0.02 in   Unknown
11:56 PM 14.0 °F 6.5 °F 9.0 °F 80% 30.53 in - West 4.6 mph - N/A   Unknown